Time,TemperatureF,DewpointF,PressureIn,WindDirection,WindDirectionDegrees,WindSpeedMPH,WindSpeedGustMPH,Humidity,HourlyPrecipIn,Conditions,Clouds,dailyrainin,SoftwareType,DateUTC
2013-08-14 00:11:00,60.0,52.0,30.12,NW,318,3.0,6.0,75,0.00,,,0.01,,2013-08-14 06:11:00,
2013-08-14 00:21:00,60.0,52.0,30.13,NNW,346,1.0,5.0,76,0.00,,,0.01,,2013-08-14 06:21:00,
2013-08-14 00:52:00,58.0,52.0,30.12,NNW,337,0.0,1.0,80,0.00,,,0.01,,2013-08-14 06:52:00,
2013-08-14 01:11:00,57.0,52.0,30.13,NW,317,0.0,2.0,83,0.00,,,0.01,,2013-08-14 07:11:00,
2013-08-14 01:21:00,57.0,52.0,30.13,NW,311,0.0,3.0,83,0.00,,,0.01,,2013-08-14 07:21:00,
2013-08-14 01:52:00,57.0,52.0,30.12,NW,311,0.0,3.0,82,0.00,,,0.01,,2013-08-14 07:52:00,
2013-08-14 02:11:00,57.0,51.0,30.12,NW,311,0.0,1.0,81,0.00,,,0.01,,2013-08-14 08:11:00,
2013-08-14 02:21:00,56.0,50.0,30.12,NW,311,0.0,0.0,79,0.00,,,0.01,,2013-08-14 08:21:00,
2013-08-14 02:31:00,56.0,50.0,30.12,NW,311,0.0,0.0,79,0.00,,,0.01,,2013-08-14 08:31:00,
2013-08-14 02:51:00,56.0,50.0,30.12,NW,311,0.0,1.0,79,0.00,,,0.01,,2013-08-14 08:51:00,
2013-08-14 03:11:00,55.0,49.0,30.13,NW,311,0.0,0.0,81,0.00,,,0.01,,2013-08-14 09:11:00,
2013-08-14 03:21:00,55.0,50.0,30.13,NW,311,0.0,1.0,82,0.00,,,0.01,,2013-08-14 09:21:00,
2013-08-14 03:52:00,54.0,50.0,30.13,NW,310,0.0,0.0,85,0.00,,,0.01,,2013-08-14 09:52:00,
2013-08-14 04:11:00,53.0,49.0,30.13,NW,310,0.0,0.0,85,0.00,,,0.01,,2013-08-14 10:11:00,
2013-08-14 04:22:00,53.0,49.0,30.13,NW,310,0.0,0.0,85,0.00,,,0.01,,2013-08-14 10:22:00,
2013-08-14 04:52:00,52.0,49.0,30.14,NW,310,0.0,1.0,89,0.00,,,0.00,,2013-08-14 10:52:00,
2013-08-14 05:11:00,52.0,49.0,30.14,WNW,298,0.0,1.0,91,0.00,,,0.00,,2013-08-14 11:11:00,
2013-08-14 05:21:00,53.0,50.0,30.14,WNW,298,0.0,3.0,90,0.00,,,0.00,,2013-08-14 11:21:00,
2013-08-14 05:51:00,53.0,50.0,30.14,NW,307,0.0,1.0,90,0.00,,,0.00,,2013-08-14 11:51:00,
2013-08-14 06:11:00,52.0,48.0,30.14,NW,307,0.0,1.0,86,0.00,,,0.00,,2013-08-14 12:11:00,
2013-08-14 06:21:00,51.0,47.0,30.14,NW,307,0.0,0.0,86,0.00,,,0.00,,2013-08-14 12:21:00,
2013-08-14 06:42:00,51.0,47.0,30.14,NW,307,0.0,0.0,87,0.00,,,0.00,,2013-08-14 12:42:00,
2013-08-14 06:52:00,50.0,47.0,30.14,NW,307,0.0,1.0,88,0.00,,,0.00,,2013-08-14 12:52:00,
2013-08-14 07:11:00,50.0,47.0,30.15,NW,307,0.0,0.0,89,0.00,,,0.00,,2013-08-14 13:11:00,
2013-08-14 07:21:00,50.0,47.0,30.15,NW,307,0.0,0.0,89,0.00,,,0.00,,2013-08-14 13:21:00,
2013-08-14 07:52:00,50.0,48.0,30.16,WNW,298,0.0,4.0,92,0.00,,,0.00,,2013-08-14 13:52:00,
2013-08-14 08:11:00,51.0,49.0,30.17,WNW,295,0.0,4.0,92,0.00,,,0.00,,2013-08-14 14:11:00,
2013-08-14 08:21:00,52.0,49.0,30.17,WNW,296,0.0,3.0,91,0.00,,,0.00,,2013-08-14 14:21:00,
2013-08-14 08:52:00,55.0,51.0,30.17,WNW,295,0.0,1.0,85,0.01,,,0.01,,2013-08-14 14:52:00,
2013-08-14 09:11:00,56.0,51.0,30.16,WNW,295,0.0,1.0,82,0.01,,,0.01,,2013-08-14 15:11:00,
2013-08-14 09:22:00,58.0,52.0,30.17,WNW,295,0.0,1.0,81,0.01,,,0.01,,2013-08-14 15:22:00,
2013-08-14 09:43:00,60.0,53.0,30.16,NNW,340,0.0,1.0,77,0.00,,,0.01,,2013-08-14 15:43:00,
2013-08-14 09:56:00,61.0,52.0,30.16,NNW,332,0.0,3.0,73,0.00,,,0.01,,2013-08-14 15:56:00,
2013-08-14 10:13:00,63.0,52.0,30.16,NNW,342,0.0,1.0,68,0.00,,,0.01,,2013-08-14 16:13:00,
2013-08-14 10:58:00,68.0,55.0,30.16,North,5,4.0,9.0,63,0.00,,,0.01,,2013-08-14 16:58:00,
2013-08-14 11:20:00,69.0,56.0,30.15,NNW,347,0.0,6.0,64,0.00,,,0.01,,2013-08-14 17:20:00,
2013-08-14 11:28:00,69.0,56.0,30.15,NNW,347,0.0,6.0,64,0.00,,,0.01,,2013-08-14 17:28:00,
2013-08-14 11:55:00,73.0,56.0,30.14,NE,49,0.0,6.0,55,0.00,,,0.01,,2013-08-14 17:55:00,
2013-08-14 12:27:00,75.0,55.0,30.14,ENE,74,0.0,6.0,49,0.00,,,0.01,,2013-08-14 18:27:00,
2013-08-14 12:54:00,75.0,53.0,30.13,East,98,1.0,7.0,47,0.00,,,0.01,,2013-08-14 18:54:00,
2013-08-14 13:12:00,76.0,54.0,30.12,ESE,105,0.0,7.0,46,0.00,,,0.01,,2013-08-14 19:12:00,
2013-08-14 13:53:00,80.0,56.0,30.11,South,175,1.0,6.0,44,0.00,,,0.01,,2013-08-14 19:53:00,
2013-08-14 14:11:00,80.0,53.0,30.10,ESE,122,1.0,5.0,40,0.00,,,0.01,,2013-08-14 20:11:00,
2013-08-14 14:52:00,81.0,52.0,30.09,South,187,1.0,7.0,36,0.00,,,0.01,,2013-08-14 20:52:00,
2013-08-14 15:13:00,81.0,52.0,30.09,SE,126,2.0,8.0,37,0.00,,,0.01,,2013-08-14 21:13:00,
2013-08-14 15:23:00,82.0,52.0,30.09,East,86,0.0,7.0,35,0.00,,,0.01,,2013-08-14 21:23:00,
2013-08-14 15:55:00,83.0,52.0,30.07,East,99,1.0,9.0,34,0.00,,,0.01,,2013-08-14 21:55:00,
2013-08-14 16:12:00,83.0,52.0,30.07,ESE,121,4.0,10.0,34,0.00,,,0.01,,2013-08-14 22:12:00,
2013-08-14 16:23:00,83.0,52.0,30.06,SSE,151,4.0,8.0,34,0.00,,,0.01,,2013-08-14 22:23:00,
2013-08-14 16:54:00,83.0,53.0,30.06,SSE,161,3.0,11.0,36,0.00,,,0.01,,2013-08-14 22:54:00,
2013-08-14 17:13:00,83.0,52.0,30.05,ESE,116,3.0,10.0,34,0.00,,,0.01,,2013-08-14 23:13:00,
2013-08-14 17:24:00,83.0,52.0,30.05,SE,124,4.0,10.0,34,0.00,,,0.01,,2013-08-14 23:24:00,
2013-08-14 17:46:00,82.0,50.0,30.05,SE,130,4.0,8.0,33,0.00,,,0.01,,2013-08-14 23:46:00,
2013-08-14 17:56:00,82.0,48.0,30.05,ESE,109,0.0,8.0,31,0.00,,,0.01,,2013-08-14 23:56:00,
2013-08-14 18:12:00,82.0,48.0,30.04,SSE,167,6.0,10.0,31,0.00,,,0.01,,2013-08-15 00:12:00,
2013-08-14 18:22:00,82.0,47.0,30.04,South,175,3.0,7.0,30,0.00,,,0.01,,2013-08-15 00:22:00,
2013-08-14 18:43:00,82.0,47.0,30.04,SSE,161,1.0,6.0,30,0.00,,,0.01,,2013-08-15 00:43:00,
2013-08-14 18:52:00,82.0,47.0,30.04,ESE,113,0.0,5.0,29,0.00,,,0.01,,2013-08-15 00:52:00,
2013-08-14 19:16:00,82.0,47.0,30.03,SSE,155,3.0,6.0,30,0.00,,,0.01,,2013-08-15 01:16:00,
2013-08-14 19:22:00,82.0,48.0,30.03,SSE,155,1.0,5.0,31,0.00,,,0.01,,2013-08-15 01:22:00,
2013-08-14 19:52:00,80.0,50.0,30.03,SSE,156,0.0,1.0,35,0.00,,,0.01,,2013-08-15 01:52:00,
2013-08-14 20:11:00,79.0,49.0,30.02,SE,146,0.0,1.0,35,0.00,,,0.01,,2013-08-15 02:11:00,
2013-08-14 20:21:00,78.0,49.0,30.02,SE,146,0.0,1.0,36,0.00,,,0.01,,2013-08-15 02:21:00,
2013-08-14 21:22:00,73.0,50.0,30.02,SE,146,0.0,0.0,44,0.00,,,0.01,,2013-08-15 03:22:00,
2013-08-14 21:53:00,70.0,51.0,30.02,SE,145,0.0,1.0,51,0.00,,,0.01,,2013-08-15 03:53:00,
2013-08-14 22:12:00,69.0,51.0,30.03,SE,146,0.0,1.0,52,0.00,,,0.01,,2013-08-15 04:12:00,
2013-08-14 22:22:00,68.0,51.0,30.02,SE,146,0.0,0.0,54,0.00,,,0.01,,2013-08-15 04:22:00,
2013-08-14 22:52:00,66.0,53.0,30.03,WSW,240,0.0,3.0,62,0.00,,,0.01,,2013-08-15 04:52:00,
2013-08-14 23:12:00,65.0,53.0,30.03,WSW,240,0.0,2.0,65,0.00,,,0.01,,2013-08-15 05:12:00,
2013-08-14 23:22:00,65.0,53.0,30.03,WSW,240,0.0,1.0,64,0.00,,,0.01,,2013-08-15 05:22:00,
2013-08-14 23:52:00,64.0,52.0,30.02,WNW,285,0.0,4.0,66,0.00,,,0.01,,2013-08-15 05:52:00,